Regional Weather Roundup
Issued by NWS Newport/Morehead, NC

Current Version | Previous Version | Graphics & Text | Print | Product List | Glossary Off
Versions: 1 2 3 4 5 6 7 8 9 10 11 12 13 14 15 16 17 18 19 20 21 22 23 24 25 26 27 28 29 30 31 32 33 34 35 36 37 38 39 40 41 42 43 44 45 46 47 48 49 50
000 ASUS42 KMHX 032112 RWRMHX WEATHER ROUNDUP FOR EASTERN NORTH CAROLINA NATIONAL WEATHER SERVICE NEWPORT/MOREHEAD CITY NC 400 PM EST TUE MAR 03 2015 NOTE: "FAIR" INDICATES FEW OR NO CLOUDS BELOW 12,000 FEET WITH NO SIGNIFICANT WEATHER AND/OR OBSTRUCTIONS TO VISIBILITY NCZ015>017-031-032-045>047-102-103-032200- NORTH COAST CITY SKY/WX TMP DP RH WIND PRES REMARKS EDENTON CLOUDY 42 33 70 E6 30.23F ELIZABETH CITY CLOUDY 43 33 68 SE3 30.24F KITTY HAWK CLOUDY 41 35 79 NE3 30.22F MANTEO CLOUDY 45 36 70 E5 30.24F $$ NCZ045>047-081-094-103-104-032200- CENTRAL COAST CITY SKY/WX TMP DP RH WIND PRES REMARKS FRISCO CLOUDY 50 42 74 E6 30.23F SWANQUARTER N/A 50 N/A N/A E6 30.18F $$ NCZ095-097-098-100-101-032200- SOUTHERN COAST CITY SKY/WX TMP DP RH WIND PRES REMARKS BEAUFORT CLOUDY 48 42 80 E5 30.22F CEDAR ISLAND N/A 41 N/A N/A NE3 30.27S JACKSONVILLE CLOUDY 47 40 76 E5 30.21F PINEY ISLAND N/A N/A N/A N/A MISG 30.22F WILMINGTON CLOUDY 47 42 83 NE7 30.21F HAZE $$ NCZ011>013-027>030-043-044-078>080-089-090>093-098-032200- COASTAL PLAIN CITY SKY/WX TMP DP RH WIND PRES REMARKS AHOSKIE CLOUDY 41 32 70 CALM 30.22F CLINTON CLOUDY 40 40 100 CALM 30.23F FOG ELIZABETHTOWN CLOUDY 43 37 79 CALM 30.22F GOLDSBORO CLOUDY 39 39 100 CALM 30.20F FOG GREENVILLE CLOUDY 41 36 81 CALM 30.23F HAVELOCK DRIZZLE 46 38 73 NE5 30.23F KENANSVILLE CLOUDY 40 40 97 CALM 30.23F FOG KINSTON DRIZZLE 43 37 81 CALM 30.22F NEW BERN CLOUDY 47 38 71 SE5 30.23F RICHLANDS CLOUDY 45 39 81 E5 30.21F ROCKY MOUNT LGT RAIN 39 35 86 CALM 30.22F FOG WASHINGTON CLOUDY 44 36 74 SE5 30.22F WHITEVILLE CLOUDY 47 39 74 CALM 30.21S $$ AMZ130-135-150-152-154-156-158-170-250-252-270-ANZ085-086-088-633-658-670-032200- MARINE OBSERVATIONS STATION/POSITION TIME TEMP WIND PRES WAVE SWELL AIR SEA DIR/SP/G HT/PER HT/PER (UTC) (F) (DEG/KT/KT) (MB) (FT/S) (FT/S) CHESAPEAKE LIGHT 2000 36 90/ 8/ 8 1025.1 64 E VA BEACH 2050 53 61 140/ 10/ 12 1023.4 3/ 6 3/ 6 DUCK 2000 36 35 30/ 3/ 4 1023.8 2 E DUCK 2011 35 N/A 3/ 6 10 NE DUCK 2022 37 N/A 3/ 6 OREGON INLET 2000 40 39 360/ 6/ 8 1024.6 HATTERAS CG 2000 43 43 60/ 8/ 10 1024.5 CAPE LOOKOUT 2100 55 140/ 8/ 8 1022.9 BEAUFORT LAB 2000 47 44 40/ 7/ 10 1022.9 27 SE WRIGHTSVLE NOT AVBL 5 SE WRIGHTSVLE NOT AVBL 225 S CAPE HAT 2050 66 72 130/ 16/ 17 1024.4 6/ 8 5/ 8 41 SE CHARLESTON 2050 69 69 270/ 4/ 6 1020.6 5/ 7 5/ 7 $$

USA.gov is the U.S. government's official web portal to all federal, state and local government web resources and services.